This is the latest recevied weather packets stored in our database for station/object WX2NJ. If no packets are shown the sender has not sent any weather packets the latest 10 day(s).
| Time | Temp. | Humidity | Pressure | Rain* | Wind** | Luminosity | Snow |
|---|---|---|---|---|---|---|---|
| 1777952283 | 15.56° C | 72% | 1015 hPa | 0 mm | - | 0 W/m² | - |
| 1777951980 | 15.56° C | 71% | 1014.9 hPa | 0 mm | - | 0 W/m² | - |
| 1777951678 | 15.56° C | 71% | 1015 hPa | 0 mm | - | 0 W/m² | - |
| 1777951374 | 16.11° C | 70% | 1015.1 hPa | 0 mm | - | 0 W/m² | - |
| 1777951071 | 16.11° C | 69% | 1015.1 hPa | 0 mm | - | 0 W/m² | - |
| 1777950767 | 15.56° C | 69% | 1015.3 hPa | 0 mm | - | 0 W/m² | - |
| 1777950464 | 16.11° C | 68% | 1015.3 hPa | 0 mm | - | 0 W/m² | - |
| 1777950161 | 15.56° C | 68% | 1015.2 hPa | 0 mm | - | 0 W/m² | - |
| 1777949856 | 16.11° C | 67% | 1015.1 hPa | 0 mm | - | 0 W/m² | - |
| 1777949554 | 16.11° C | 65% | 1015.1 hPa | 0 mm | - | 0 W/m² | - |
| 1777949252 | 16.67° C | 64% | 1015.2 hPa | 0 mm | - | 0 W/m² | - |
| 1777948949 | 16.67° C | 63% | 1015.2 hPa | 0 mm | - | 0 W/m² | - |
| 1777948647 | 16.67° C | 62% | 1015.2 hPa | 0 mm | - | 0 W/m² | - |
| 1777948344 | 16.67° C | 62% | 1015.2 hPa | 0 mm | - | 0 W/m² | - |
| 1777948041 | 16.67° C | 61% | 1015.4 hPa | 0 mm | - | 0 W/m² | - |
| 1777947738 | 17.22° C | 60% | 1015.3 hPa | 0 mm | - | 0 W/m² | - |
| 1777947435 | 16.67° C | 61% | 1015.2 hPa | 0 mm | - | 0 W/m² | - |
| 1777947132 | 16.67° C | 61% | 1015.3 hPa | 0 mm | - | 0 W/m² | - |
| 1777946827 | 16.67° C | 61% | 1015.5 hPa | 0 mm | - | 0 W/m² | - |
| 1777946523 | 16.67° C | 61% | 1015.2 hPa | 0 mm | - | 0 W/m² | - |
| 1777946220 | 16.67° C | 60% | 1015.3 hPa | 0 mm | - | 0 W/m² | - |
| 1777945917 | 16.67° C | 61% | 1015.2 hPa | 0 mm | - | 0 W/m² | - |
| 1777945614 | 16.67° C | 62% | 1015.4 hPa | 0 mm | - | 0 W/m² | - |
| 1777945311 | 16.67° C | 62% | 1015.5 hPa | 0 mm | - | 0 W/m² | - |
| 1777945008 | 16.67° C | 62% | 1015.4 hPa | 0 mm | - | 0 W/m² | - |
* Rain latest hour (hover to see other rain measurements)
** Current wind speed in m/s (hover to see current wind gust speed)